千帆星座-14 (QIANFAN-14)

导读

QIANFAN-14 是中国自主研发的北斗卫星导航系统中的重要成员,主要用于提供高精度定位、导航和授时服务。该卫星采用先进的技术和稳定的平台设计,增强了系统的整体性能和覆盖能力。QIANFAN-14 的成功发射和运行,进一步提升了北斗系统在全球范围内的竞争力和应用价值,为交通运输、气象预报、应急救援等多个领域提供了可靠支持。

Basic Information
目录编号:
60392
目录名称:
QIANFAN-14
国际标识:
2024-140P
轨道中心:
EARTH
卫星名称:
千帆星座-14 (QIANFAN-14)
卫星全名:
千帆星座-14 (QIANFAN-14)
卫星状态:
在轨 (已飞行720 天)
发射日期:
2024-08-06 UTC
国别 :
中国 (CN)
星等 :
--
Orbit Information
数据来源 国际轨道数据 AOE轨道数据
星历时间 2026-07-27T22:20:29+0800
9小时前
查看轨道信息
2026-07-24T00:00:00+0800
4天前
查看轨道信息
半长轴 7446.634km 7446.637km
偏心率 0.0014316 0.0014303
轨道倾角 88.970° 88.969°
近地点辐角 272.085° 285.558°
升交点赤经 275.714° 276.119°
平近点角 87.866° 47.141°
近地点 1057.836km 1057.849km
远地点 1079.158km 1079.151km
周期 106.586分钟 106.586分钟
每日圈数 13.510231 13.510224
Detailed Information
运营商:
上海垣信卫星科技有限公司
运营商所在国:
中国
使用方式:
暂无
Satellite Introduction
千帆星座,也被称为“G60星链”计划,是中国版“星链”的重要组成部分,旨在打造一个由1.4万多颗低轨宽频多媒体卫星构成的庞大星座。千帆星座计划由上海垣信卫星科技有限公司负责实施,于2023年启动建设。该项目是我国第二个低轨卫星大星座,旨在通过构建庞大的卫星网络,为全球用户提供高质量的通信和宽带互联网服务。
2D Orbit Map
3D Orbit Map
Orbit Altitude Analysis Chart
Orbit Inclination Analysis Chart
Orbit Comprehensive Analysis Chart
View Comprehensive Chart